Location: ??????????
(42.1626°N, 44.1160°E)
Time: 11:06:06
(UTC+00:00)

SL-08 RB Rocket - Pass Details

Date: 03 March 2021
Orbit: 646 x 684 km, 97.8° (Epoch: 20 April)

Event Time Altitude Azimuth Distance (km) Brightness Sun altitude
Rises 15:33:33 0° 142° (SE) 2,962 6.7 -7.8°
Reaches altitude 10° 15:35:54 10° 133° (SE) 2,061 5.8 -8.2°
Maximum altitude 15:39:55 33° 69° (ENE) 1,111 4.4 -8.9°
Drops below altitude 10° 15:44:00 10° 6° (N) 2,095 6.2 -9.7°
Sets 15:46:24 0° 357° (N) 3,019 7.1 -10.1°
